Location: The Saddle
(36.8333°N, 80.3417°W)
Time: 03:01:34
(UTC-04:00)

Vanguard 3 - Pass Details

Date: 29 February 2024
Orbit: 510 x 3234 km, 33.3° (Epoch: 24 April)

Event Time Altitude Azimuth Distance (km) Brightness Sun altitude
Rises 21:45:49 0° 263° (W) 6,789 12.5 -41.9°
Reaches altitude 10° 21:50:03 10° 263° (W) 5,957 12.0 -42.6°
Maximum altitude 22:09:55 80° 180° (S) 3,181 9.7 -46.1°
Enters shadow 22:09:57 80° 179° (S) 3,180 9.7 -46.1°
